Hibbing, MN

11:13 PM CDT on May 27, 2017 (GMT -0500)
Chisholm-hibbing

Weather History for KHIB - February, 2014

Change the Weather History Date:

Sunday, February 23, 2014

  Actual Average Record
Temperature  
Mean Temperature 6 °F -  
Max Temperature 15 °F 26 °F 47 °F (1976)
Min Temperature -2 °F 6 °F -31 °F (2015)
Degree Days  
Heating Degree Days 58    
Moisture  
Dew Point -4 °F    
Average Humidity 67    
Maximum Humidity 79    
Minimum Humidity 51    
Precipitation  
Precipitation 0.00 in - - ()
Sea Level Pressure  
Sea Level Pressure 30.07 in    
Wind  
Wind Speed 11 mph (WNW)    
Max Wind Speed 21 mph    
Max Gust Speed 30 mph    
Visibility 10 miles    
Events      
Averages and records for this station are not official NWS values.
T = Trace of Precipitation, MM = Missing Value Source: NWS Daily Summary

Daily Weather History Graph

Daily Weather History Graph

Search for Another Location

Airport or City:

Trip Planner

Search our weather history database for the weather conditions in past years. The results will help you decide how hot, cold, wet, or windy it might be!

Date:

Astronomy

Feb. 23, 2014 Rise Set
Actual Time 7:02 AM CST 5:47 PM CST
Civil Twilight 6:31 AM CST 6:18 PM CST
Nautical Twilight 5:56 AM CST 6:54 PM CST
Astronomical Twilight 5:20 AM CST 7:29 PM CST
Moon 2:13 AM CST (2/23) 11:37 AM CST (2/23)
Length of Visible Light 11h 46m
Length of Day
10h 44m
Last Quarter, 38% of the Moon is Illuminated
Feb 23
Last Quarter
Mar 1
New
Mar 8
First Quarter
Mar 16
Full
Mar 23
Last Quarter

Hourly Weather History & Observations

Time (CST) Temp. Windchill Dew Point Humidity Pressure Visibility Wind Dir Wind Speed Gust Speed Precip Events Conditions
12:53 AM 3.0 °F -12.5 °F -4.0 °F 73% 30.02 in 10.0 mi WNW 10.4 mph - N/A   Clear
1:53 AM 1.9 °F -13.8 °F -5.1 °F 72% 30.03 in 10.0 mi WNW 10.4 mph - N/A   Clear
2:53 AM 1.9 °F -14.7 °F -5.1 °F 72% 30.03 in 10.0 mi WNW 11.5 mph - N/A   Clear
3:53 AM 1.9 °F -12.9 °F -5.1 °F 72% 30.04 in 10.0 mi WNW 9.2 mph - N/A   Clear
4:36 AM 1.0 °F -14.0 °F -5.1 °F 75% 29.95 in 10.0 mi West 9.2 mph - N/A   Mostly Cloudy
4:53 AM 1.0 °F -11.7 °F -5.1 °F 75% 30.06 in 10.0 mi West 6.9 mph - N/A   Mostly Cloudy
5:04 AM 1.0 °F -11.7 °F -5.1 °F 75% 29.96 in 10.0 mi West 6.9 mph - N/A   Scattered Clouds
5:53 AM -0.0 °F -11.6 °F -6.0 °F 76% 30.08 in 10.0 mi West 5.8 mph - N/A   Clear
6:51 AM -0.4 °F -10.4 °F -7.6 °F 72% 29.97 in 10.0 mi WSW 4.6 mph - N/A   Mostly Cloudy
6:53 AM -0.9 °F -12.7 °F -7.1 °F 75% 30.08 in 10.0 mi WSW 5.8 mph - N/A   Mostly Cloudy
7:07 AM -2.0 °F -13.9 °F -7.1 °F 79% 29.97 in 10.0 mi West 5.8 mph - N/A   Scattered Clouds
7:50 AM -0.4 °F -13.4 °F -5.8 °F 78% 29.97 in 10.0 mi West 6.9 mph - N/A   Mostly Cloudy
7:53 AM -0.0 °F -13.0 °F -6.0 °F 76% 30.09 in 10.0 mi West 6.9 mph - N/A   Mostly Cloudy
8:12 AM 1.0 °F -14.0 °F -6.0 °F 72% 29.98 in 10.0 mi West 9.2 mph - N/A   Scattered Clouds
8:53 AM 3.0 °F -12.5 °F -5.1 °F 69% 30.10 in 10.0 mi WNW 10.4 mph - N/A   Partly Cloudy
9:21 AM 3.9 °F -11.3 °F -5.1 °F 66% 29.99 in 10.0 mi WNW 10.4 mph 18.4 mph N/A   Mostly Cloudy
9:53 AM 6.1 °F -10.2 °F -4.0 °F 63% 30.11 in 10.0 mi NW 12.7 mph - N/A   Overcast
10:53 AM 9.0 °F -10.5 °F -2.9 °F 59% 30.10 in 10.0 mi NW 20.7 mph 28.8 mph N/A   Mostly Cloudy
11:35 AM 9.0 °F -8.5 °F -2.9 °F 59% 30.00 in 10.0 mi WNW 16.1 mph 27.6 mph N/A   Partly Cloudy
11:53 AM 10.9 °F -5.4 °F -2.9 °F 54% 30.11 in 10.0 mi WNW 15.0 mph 24.2 mph N/A   Scattered Clouds
12:53 PM 12.0 °F -4.0 °F -2.9 °F 51% 30.10 in 10.0 mi WNW 15.0 mph 29.9 mph N/A   Partly Cloudy
1:53 PM 14.0 °F -3.9 °F -0.9 °F 52% 30.10 in 10.0 mi NW 20.7 mph 26.5 mph N/A   Mostly Cloudy
2:53 PM 12.9 °F -1.6 °F -0.9 °F 54% 30.11 in 10.0 mi WNW 12.7 mph 25.3 mph N/A   Mostly Cloudy
3:53 PM 15.1 °F 3.3 °F -0.0 °F 51% 30.11 in 10.0 mi WNW 9.2 mph 20.7 mph N/A   Overcast
4:53 PM 12.9 °F -4.4 °F -0.0 °F 56% 30.13 in 10.0 mi WNW 18.4 mph 24.2 mph N/A   Overcast
5:53 PM 10.0 °F -5.2 °F -0.9 °F 61% 30.14 in 10.0 mi WNW 12.7 mph 21.9 mph N/A   Scattered Clouds
6:53 PM 9.0 °F -9.5 °F -0.9 °F 64% 30.16 in 10.0 mi WNW 18.4 mph 23.0 mph N/A   Mostly Cloudy
7:53 PM 8.1 °F -8.4 °F -0.9 °F 67% 30.17 in 6.0 mi WNW 13.8 mph 23.0 mph N/A   Haze
8:09 PM 7.0 °F -9.8 °F -0.9 °F 70% 30.06 in 9.0 mi WNW 13.8 mph 25.3 mph 0.00 in   Overcast
8:53 PM 6.1 °F -13.3 °F -2.0 °F 69% 30.18 in 10.0 mi WNW 18.4 mph 21.9 mph 0.00 in   Scattered Clouds
9:41 PM 5.0 °F -10.0 °F -2.9 °F 70% 30.07 in 10.0 mi WNW 10.4 mph - N/A   Mostly Cloudy
9:53 PM 5.0 °F -12.3 °F -2.9 °F 70% 30.19 in 10.0 mi WNW 13.8 mph 19.6 mph N/A   Mostly Cloudy
10:53 PM 3.9 °F -11.3 °F -4.0 °F 70% 30.19 in 10.0 mi WNW 10.4 mph 18.4 mph N/A   Mostly Cloudy
11:42 PM 3.0 °F -14.8 °F -4.0 °F 73% 30.08 in 10.0 mi WNW 13.8 mph 19.6 mph N/A   Scattered Clouds
11:53 PM 3.0 °F -11.5 °F -5.1 °F 69% 30.19 in 10.0 mi WNW 9.2 mph 19.6 mph N/A   Scattered Clouds